Regional Weather Roundup
Issued by NWS

Home | Current Version | Previous Version | Graphics & Text | Print | Product List | Glossary On
Versions: 1 2 3 4 5 6 7 8 9 10 11 12 13 14 15 16 17 18 19 20 21 22 23 24 25 26 27 28 29 30 31 32 33 34 35 36 37 38 39 40 41 42 43 44 45 46 47 48 49 50
121
ASUS45 KSLC 211610
RWRUT

UTAH REGIONAL WEATHER ROUNDUP
NATIONAL WEATHER SERVICE SALT LAKE CITY UT
1000 AM MDT FRI JUL 21 2017

UTZ001>011-023>025-211700-

NORTHERN UTAH

CITY           SKY/WX    TMP DP  RH WIND       PRES   REMARKS
BRIGHAM CITY   SUNNY     81  45  27 E3        30.10S
HILL AFB       SUNNY     82  54  38 E5        30.12R
LOGAN          SUNNY     76  57  51 CALM      30.12S
OGDEN          SUNNY     83  52  34 W5        30.08S
SALT LAKE CITY MOSUNNY   85  54  34 SE7       30.07S
TOOELE VALLEY  SUNNY     82  52  34 NW3       30.09S
WENDOVER       SUNNY     82  41  23 E7        30.10S
HEBER CITY     SUNNY     77  52  41 CALM      30.18R
WEST JORDAN    SUNNY     83  61  46 SE9       30.11S

$$

UTZ011>015-024>027-211700-

CENTRAL/NORTHEAST UTAH

CITY           SKY/WX    TMP DP  RH WIND       PRES   REMARKS
PROVO AIRPORT  MOSUNNY   81  57  43 S7        30.12S
MOAB/CANYONLAN SUNNY     82  59  45 SE6       30.12S
DELTA          SUNNY     82  46  28 SW10      30.13R
PRICE          SUNNY     77  52  41 VRB6      30.23R
ROOSEVELT      SUNNY     79  52  38 CALM      30.19F
VERNAL         SUNNY     80  53  39 CALM      30.18F

$$

UTZ013>016-019>022-027-211700-

SOUTHERN UTAH

CITY           SKY/WX    TMP DP  RH WIND       PRES   REMARKS
BRYCE CANYON   MOSUNNY   69  53  56 CALM      30.36S
CEDAR CITY     MOSUNNY   78  50  37 W6        30.20S
MILFORD        SUNNY     82  51  34 S14       30.14S
ST GEORGE      SUNNY     86  56  35 CALM      30.03S
HANKSVILLE     SUNNY     81  55  41 S8        30.15F
BLANDING       MOSUNNY   71  56  57 CALM      30.32S

$$

REGIONAL REPORTS     COLORADO/ARIZONA

CITY           SKY/WX    TMP DP  RH WIND       PRES   REMARKS
CRAIG, CO      MOSUNNY   76  48  37 NE8       30.25F
GRAND JUNCTION CLOUDY    79  54  41 SE12      30.16S
RIFLE, CO      CLOUDY    74  55  51 N5        30.22S
MONTROSE, CO   CLOUDY    75  51  43 S5        30.23F
CORTEZ, CO     MOSUNNY   73  58  59 NE5       30.25F
COLORADO CITY    N/A     82  57  42 CALM      30.20S
PAGE, AZ       MOSUNNY   83  59  44 VRB5      30.12S
GRAND CANYON   SUNNY     71  55  56 SW5       30.32R
KINGMAN, AZ    SUNNY     86  58  38 CALM      30.08S
FLAGSTAFF, AZ  CLOUDY    62  57  83 W5        30.34S

$$

REGIONAL REPORTS    NEVADA/IDAHO/WYOMING

CITY           SKY/WX    TMP DP  RH WIND       PRES   REMARKS
LAS VEGAS, NV  MOSUNNY   91  44  19 SE3       29.95S
ELY, NY        SUNNY     73  44  35 N3        30.24S
ELKO, NV       SUNNY     71  28  20 CALM      30.18S
POCATELLO, ID  SUNNY     75  42  30 SW9       30.16S
BURLEY, ID     SUNNY     72  45  37 VRB5      30.14R
FORT BRIDGER,    N/A     69  54  58 N5        30.32F
EVANSTON, WY   CLOUDY    72  53  51 VRB3      30.30S
ROCK SPRINGS,  CLOUDY    68  54  60 CALM      30.28S
KEMMERER, WY     N/A     70  48  46 SE3       30.32S

$$




USA.gov is the U.S. government's official web portal to all federal, state and local government web resources and services.